Flag for Canada Weather past 2 weeks in Fort Simpson, Northwest Territories, Canada

Now
59 °F

Mostly cloudy.


Feels Like: 60 °F
Forecast: 45 / 52 °F
Wind: 3 mph from North

Location: Fort Simpson

Current Time: Sep 14, 2014 at 8:13:16 PM

Latest Report: Sep 14, 2014 at 7:00 PM


Visibility: 1 mi

Pressure: 29.88 "Hg

Humidity: 59%

Dew point: 45 °F

Location of Fort SimpsonLocation

Historic Weather in Fort Simpson — Graph

°F

Fort Simpson temperature yesterday

Maximum temperature yesterday: 64 °F (at 6:00 PM)
Minimum temperature yesterday: 36 °F (at 7:00 AM)
Average temperature yesterday: 47 °F

Past Weeks' High & Low Weather Summary

 TemperatureHumidityPressure
High68 °F (Sep 2, 5:00 PM)100% (Aug 30, 11:00 PM)30.47 "Hg (Aug 30, 11:00 PM)
Low25 °F (Sep 7, 3:00 AM)19% (Sep 10, 4:00 PM)29.50 "Hg (Aug 30, 6:00 PM)
Average46 °F67%30.03 "Hg
* Reported Aug 30 6:00 PM — Sep 14 6:00 PM, Fort Simpson, Weather by CustomWeather, © 2014

Note: Actual official high and low records may vary slightly from our data, if they occured in-between our weather recording intervals... More about our weather records

Advertising

Fort Simpson weather history for previous 24 hours

 ConditionsComfort  
Time TempWeatherWind HumidityBarometerVisibility
6:00 PM
Sep 14
61 °FMostly cloudy.5 mph55%29.89 "Hg1 mi
5:00 PM61 °FMostly cloudy.5 mph55%29.89 "Hg1 mi
4:00 PM61 °FMostly cloudy.7 mph55%29.90 "Hg1 mi
3:00 PM61 °FMostly cloudy.2 mph52%29.90 "Hg3 mi
2:00 PM57 °FOvercast.2 mph55%29.90 "Hg4 mi
1:00 PM55 °FMostly cloudy.3 mph59%29.91 "Hg5 mi
12:00 PM52 °FMostly cloudy.No wind62%29.91 "Hg12 mi
11:00 AM46 °FMostly cloudy.3 mph71%29.91 "Hg12 mi
10:00 AM43 °FMostly cloudy.2 mph81%29.91 "Hg15 mi
9:00 AM41 °FPartly sunny.2 mph87%29.90 "Hg12 mi
8:00 AM36 °FPassing clouds.3 mph93%29.90 "Hg15 mi
7:00 AM37 °FFog.2 mph93%29.90 "Hg15 mi
6:00 AM39 °FPassing clouds.3 mph93%29.90 "Hg15 mi
5:00 AM36 °FPassing clouds.2 mph93%29.91 "Hg15 mi
4:00 AM34 °FPassing clouds.2 mph81%29.91 "Hg15 mi
3:00 AM36 °FPassing clouds.No wind93%29.90 "Hg15 mi
2:00 AM34 °FPassing clouds.No wind87%29.91 "Hg15 mi
1:00 AM39 °FPassing clouds.3 mph93%29.91 "Hg15 mi
12:00 AM39 °FPassing clouds.No wind87%29.90 "Hg15 mi
11:00 PM
Sep 13
43 °FPassing clouds.No wind81%29.91 "Hg15 mi
10:00 PM45 °FPassing clouds.No wind81%29.90 "Hg15 mi
9:00 PM48 °FPassing clouds.No wind71%29.91 "Hg15 mi
8:00 PM57 °FPassing clouds.No wind55%29.90 "Hg15 mi
Weather by CustomWeather, © 2014

See weather overviewHow to use our weather pages